GW2280 Weather Reports


Display with metric or nautical units.
time (UTC)temp
F
wind
direction
speed
MPH
gust
MPH
rain 1hr
in
rain 24hr
in
rain mn
in
humidity
%
barometer
mb
20260507013045 57 232 6.0 17.0 0.00 0.44 0.44 98 1006.3
20260507012549 57 229 6.0 17.0 0.00 0.44 0.44 98 1006.3
20260507012013 57 249 7.0 17.0 0.00 0.44 0.44 98 1006.3
20260507011529 57 236 8.0 16.0 0.00 0.44 0.44 98 1006.4
20260507011014 57 220 9.0 18.0 0.00 0.44 0.44 98 1006.4
20260507010512 57 263 11.0 18.0 0.00 0.44 0.44 98 1006.3
20260507010036 57 232 8.0 18.0 0.00 0.44 0.44 98 1006.4
20260507005516 57 221 10.0 18.0 0.00 0.44 0.44 98 1006.4
20260507005011 57 228 9.0 18.0 0.00 0.44 0.44 97 1006.4
20260507004530 57 255 6.0 18.0 0.00 0.44 0.44 97 1006.4
20260507004011 57 229 5.0 16.0 0.00 0.44 0.44 97 1006.5
20260507003515 57 228 9.0 16.0 0.00 0.44 0.44 97 1006.4
20260507003031 57 216 6.0 19.0 0.00 0.44 0.44 97 1006.4
20260507002513 57 196 7.0 19.0 0.00 0.44 0.44 97 1006.2
20260507002013 57 194 10.0 19.0 0.00 0.44 0.44 97 1006.3
20260507001533 57 214 7.0 19.0 0.00 0.44 0.44 97 1006.2
20260507001014 57 204 8.0 19.0 0.00 0.44 0.44 98 1006.2
20260507000514 57 235 10.0 19.0 0.00 0.44 0.44 97 1006.2
20260507000029 57 212 11.0 19.0 0.00 0.44 0.44 97 1006.2
20260506235513 57 213 8.0 17.0 0.00 0.44 0.44 97 1006.1
20260506235014 57 207 8.0 21.0 0.00 0.44 0.44 97 1006.2
20260506234536 57 198 8.0 21.0 0.00 0.44 0.44 97 1006.3
20260506234015 57 201 7.0 21.0 0.00 0.44 0.44 97 1006.2
20260506233514 57 214 10.0 24.0 0.00 0.44 0.44 97 1006.4
20260506233049 57 233 9.0 24.0 0.00 0.44 0.44 97 1006.1
20260506232514 57 196 10.0 24.0 0.00 0.44 0.44 97 1006.2
20260506232014 57 188 11.0 21.0 0.00 0.44 0.44 97 1006.2
20260506231530 57 231 7.0 20.0 0.00 0.44 0.44 97 1006.2
20260506231017 57 188 8.0 21.0 0.00 0.44 0.44 97 1006.2
20260506230512 57 202 11.0 25.0 0.00 0.44 0.44 97 1006.2
20260506230031 57 217 11.0 25.0 0.00 0.44 0.44 97 1006.3
20260506225514 58 225 10.0 27.0 0.00 0.44 0.44 97 1006.3
20260506225011 58 191 11.0 27.0 0.00 0.44 0.44 97 1006.2
20260506224531 58 161 13.0 26.0 0.00 0.44 0.44 97 1006.3
20260506224012 58 155 15.0 30.0 0.00 0.44 0.44 97 1006.3
20260506223511 58 224 12.0 30.0 0.00 0.44 0.44 97 1006.4
20260506223030 58 213 13.0 30.0 0.00 0.44 0.44 97 1006.4
20260506222512 58 211 13.0 32.0 0.00 0.44 0.44 97 1006.4
20260506222018 58 207 11.0 32.0 0.01 0.44 0.44 97 1006.4
20260506221533 59 196 8.0 21.0 0.01 0.44 0.44 97 1006.4
20260506221010 59 236 9.0 24.0 0.01 0.44 0.44 97 1006.4
20260506220511 59 237 13.0 24.0 0.02 0.44 0.44 97 1006.4
20260506220031 59 242 10.0 26.0 0.02 0.44 0.44 97 1006.6
20260506215514 59 221 11.0 26.0 0.03 0.44 0.44 97 1006.5
20260506215012 59 211 15.0 25.0 0.03 0.44 0.44 97 1006.6
20260506214531 59 163 12.0 25.0 0.04 0.44 0.44 97 1006.7
20260506214017 59 217 9.0 26.0 0.04 0.44 0.44 97 1006.8
20260506213513 59 175 12.0 28.0 0.04 0.44 0.44 97 1006.7
20260506213032 59 192 11.0 28.0 0.05 0.44 0.44 97 1006.8
20260506212514 59 173 10.0 21.0 0.05 0.43 0.43 97 1006.9
20260506212013 59 196 8.0 21.0 0.07 0.43 0.43 97 1007.0
20260506211530 59 164 9.0 29.0 0.08 0.43 0.43 97 1006.9
20260506211014 59 193 11.0 29.0 0.08 0.42 0.42 97 1006.9
20260506210522 59 200 10.0 21.0 0.08 0.42 0.42 97 1007.0
20260506210036 59 161 7.0 21.0 0.09 0.42 0.42 97 1007.1
20260506205516 59 194 9.0 22.0 0.08 0.41 0.41 97 1007.1
20260506205019 59 186 9.0 22.0 0.08 0.41 0.41 96 1007.2
20260506204535 59 148 9.0 20.0 0.08 0.40 0.40 96 1007.2
20260506204014 59 194 9.0 20.0 0.08 0.40 0.40 96 1007.1
20260506203513 59 160 9.0 20.0 0.09 0.40 0.40 96 1007.2
20260506203031 59 198 6.0 17.0 0.08 0.39 0.39 96 1007.3
20260506202516 59 188 7.0 15.0 0.06 0.37 0.37 96 1007.3
20260506202014 59 184 4.0 11.0 0.05 0.36 0.36 96 1007.4
20260506201534 59 199 4.0 15.0 0.05 0.35 0.35 96 1007.4
20260506201016 59 204 6.0 15.0 0.04 0.34 0.34 96 1007.4
20260506200512 59 198 5.0 13.0 0.05 0.33 0.33 96 1007.3
20260506200039 60 175 4.0 13.0 0.07 0.33 0.33 96 1007.3
20260506195515 60 216 6.0 15.0 0.08 0.33 0.33 95 1007.4
20260506195017 60 209 6.0 15.0 0.09 0.33 0.33 95 1007.4
20260506194530 60 217 7.0 15.0 0.09 0.32 0.32 95 1007.5
20260506194012 60 224 6.0 18.0 0.10 0.32 0.32 95 1007.5
20260506193513 60 213 7.0 19.0 0.12 0.31 0.31 95 1007.6
20260506193032 60 216 7.0 21.0 0.14 0.31 0.31 95 1007.7
20260506192513 60 232 10.0 22.0 0.16 0.31 0.31 95 1007.8
20260506192014 60 209 8.0 22.0 0.20 0.31 0.31 95 1007.7
20260506191529 60 360 8.0 17.0 0.23 0.30 0.30 95 1007.9
20260506191014 60 231 6.0 15.0 0.26 0.29 0.29 95 1008.1
20260506190515 60 211 6.0 15.0 0.26 0.28 0.28 94 1008.1
20260506190030 60 209 6.0 15.0 0.25 0.26 0.26 94 1008.2
20260506185515 60 231 7.0 15.0 0.25 0.25 0.25 94 1008.2
20260506185014 60 221 8.0 16.0 0.24 0.24 0.24 94 1008.1
20260506184534 60 242 9.0 18.0 0.23 0.23 0.23 93 1008.2
20260506184017 60 244 7.0 18.0 0.21 0.21 0.21 93 1008.4
20260506183512 60 217 9.0 18.0 0.18 0.18 0.18 92 1008.6
20260506183034 61 360 9.0 18.0 0.16 0.16 0.16 91 1008.5
20260506182514 61 242 7.0 18.0 0.14 0.14 0.14 90 1008.5
20260506182014 62 206 10.0 18.0 0.10 0.10 0.10 88 1008.7
20260506181531 63 225 6.0 11.0 0.06 0.06 0.06 86 1008.6
20260506181013 64 235 4.0 10.0 0.03 0.03 0.03 83 1008.1
20260506180515 65 224 4.0 14.0 0.02 0.02 0.02 81 1008.6
20260506180030 66 200 3.0 14.0 0.01 0.01 0.01 78 1008.2
20260506175512 67 198 7.0 24.0 0.00 0.00 0.00 73 1008.1
20260506175012 67 148 10.0 24.0 0.00 0.00 0.00 69 1007.9
20260506174532 68 194 8.0 32.0 0.00 0.00 0.00 70 1007.9
20260506174014 68 211 14.0 32.0 0.00 0.00 0.00 67 1007.8
20260506173514 68 277 11.0 22.0 0.00 0.00 0.00 67 1007.8
20260506173038 68 164 12.0 20.0 0.00 0.00 0.00 67 1007.9
20260506172511 68 192 7.0 26.0 0.00 0.00 0.00 68 1007.9
20260506172013 68 182 9.0 26.0 0.00 0.00 0.00 68 1008.1
20260506171532 68 170 11.0 26.0 0.00 0.00 0.00 68 1008.1
20260506171017 68 360 11.0 25.0 0.00 0.00 0.00 68 1008.2
20260506170513 68 173 10.0 25.0 0.00 0.00 0.00 68 1008.2
20260506170030 68 179 6.0 17.0 0.00 0.00 0.00 69 1008.4
20260506165512 68 190 9.0 20.0 0.00 0.00 0.00 69 1008.5
20260506165012 68 169 8.0 20.0 0.00 0.00 0.00 69 1008.6
20260506164530 68 204 7.0 15.0 0.00 0.00 0.00 70 1008.8
20260506164014 68 360 7.0 15.0 0.00 0.00 0.00 70 1009.0
20260506163515 68 246 5.0 20.0 0.00 0.00 0.00 71 1009.0
20260506163033 67 180 8.0 20.0 0.00 0.00 0.00 71 1009.1
20260506162514 67 221 4.0 16.0 0.00 0.00 0.00 72 1009.3
20260506162013 67 188 6.0 20.0 0.00 0.00 0.00 72 1009.5
20260506161531 67 207 8.0 20.0 0.00 0.00 0.00 72 1009.6
20260506161013 67 207 6.0 19.0 0.00 0.00 0.00 72 1009.7
20260506160512 67 236 10.0 18.0 0.00 0.00 0.00 73 1009.9
20260506160030 66 238 8.0 19.0 0.00 0.00 0.00 73 1010.0
20260506155518 66 225 10.0 20.0 0.00 0.00 0.00 73 1010.1
20260506155011 66 196 7.0 20.0 0.00 0.00 0.00 73 1010.1
20260506154532 66 215 8.0 21.0 0.00 0.00 0.00 73 1010.3
20260506154012 66 229 9.0 23.0 0.00 0.00 0.00 73 1010.3
20260506153511 66 212 10.0 23.0 0.00 0.00 0.00 73 1010.4
20260506153031 67 234 7.0 20.0 0.00 0.00 0.00 73 1010.4
20260506152514 67 220 4.0 20.0 0.00 0.00 0.00 73 1010.3
20260506152014 66 234 4.0 17.0 0.00 0.00 0.00 74 1010.1
20260506151529 66 225 7.0 17.0 0.00 0.00 0.00 74 1010.1
20260506151014 66 200 5.0 20.0 0.00 0.00 0.00 74 1010.2
20260506150512 66 246 8.0 20.0 0.00 0.00 0.00 74 1010.4
20260506150030 66 190 7.0 16.0 0.00 0.00 0.00 75 1010.3
20260506145517 66 186 6.0 13.0 0.00 0.00 0.00 76 1010.1
20260506145011 65 209 5.0 13.0 0.00 0.00 0.00 76 1010.1
20260506144532 65 215 4.0 13.0 0.00 0.00 0.00 77 1010.2
20260506144013 65 185 5.0 12.0 0.00 0.00 0.00 77 1010.1
20260506143513 64 217 6.0 12.0 0.00 0.00 0.00 77 1010.2
20260506143034 64 244 6.0 16.0 0.00 0.00 0.00 78 1010.2
20260506142513 64 227 6.0 16.0 0.00 0.00 0.00 78 1010.0
20260506142010 64 224 8.0 16.0 0.00 0.00 0.00 78 1010.0
20260506141532 63 240 6.0 16.0 0.00 0.00 0.00 79 1009.9
20260506141014 63 155 7.0 16.0 0.00 0.00 0.00 79 1010.0
20260506140512 63 236 6.0 14.0 0.00 0.00 0.00 79 1010.0
20260506140031 63 223 4.0 14.0 0.00 0.00 0.00 79 1010.3
20260506135514 63 211 7.0 14.0 0.00 0.00 0.00 79 1010.1
20260506135014 62 223 8.0 14.0 0.00 0.00 0.00 79 1010.3
20260506134528 62 198 7.0 14.0 0.00 0.00 0.00 79 1010.5
20260506134017 62 221 5.0 19.0 0.00 0.00 0.00 79 1010.6
20260506133513 62 248 7.0 19.0 0.00 0.00 0.00 80 1010.5
20260506133032 62 233 10.0 19.0 0.00 0.00 0.00 80 1010.4
20260506132513 62 229 4.0 22.0 0.00 0.00 0.00 80 1010.4
20260506132015 62 213 10.0 22.0 0.00 0.00 0.00 80 1010.4
20260506131535 62 213 7.0 21.0 0.00 0.00 0.00 80 1010.4
20260506131012 62 239 10.0 27.0 0.00 0.00 0.00 80 1010.4
20260506130516 62 222 12.0 27.0 0.00 0.00 0.00 80 1010.3
20260506130030 62 215 13.0 24.0 0.00 0.00 0.00 80 1010.3
20260506125512 62 226 7.0 18.0 0.00 0.00 0.00 80 1010.3
20260506125018 61 242 7.0 18.0 0.00 0.00 0.00 81 1010.2
20260506124536 61 211 6.0 18.0 0.00 0.00 0.00 81 1010.3
20260506124014 61 197 6.0 18.0 0.00 0.00 0.00 81 1010.3
20260506123511 61 253 6.0 18.0 0.00 0.00 0.00 81 1010.4
20260506123039 61 234 9.0 18.0 0.00 0.00 0.00 81 1010.5
20260506122513 61 225 6.0 15.0 0.00 0.00 0.00 81 1010.4
20260506122011 61 226 6.0 15.0 0.00 0.00 0.00 81 1010.6
20260506121529 60 228 6.0 18.0 0.00 0.00 0.00 82 1010.4
20260506121014 60 246 8.0 18.0 0.00 0.00 0.00 82 1010.4
20260506120512 60 243 8.0 16.0 0.00 0.00 0.00 83 1010.6
20260506120052 59 233 8.0 15.0 0.00 0.00 0.00 83 1010.8
20260506115512 59 215 5.0 16.0 0.00 0.00 0.00 83 1010.8
20260506115011 59 227 6.0 16.0 0.00 0.00 0.00 83 1010.8
20260506114529 59 248 8.0 16.0 0.00 0.00 0.00 83 1010.9
20260506114013 59 234 7.0 15.0 0.00 0.00 0.00 84 1010.8
20260506113511 58 213 4.0 16.0 0.00 0.00 0.00 84 1010.8
20260506113029 58 242 5.0 16.0 0.00 0.00 0.00 84 1011.0
20260506112514 58 219 5.0 12.0 0.00 0.00 0.00 84 1011.0
20260506112012 58 207 7.0 14.0 0.00 0.00 0.00 84 1011.0
20260506111529 58 238 6.0 16.0 0.00 0.00 0.00 84 1011.2
20260506111012 58 229 9.0 16.0 0.00 0.00 0.00 84 1011.4
20260506110515 57 227 6.0 14.0 0.00 0.00 0.00 85 1011.2
20260506110030 57 194 6.0 16.0 0.00 0.00 0.00 84 1011.0
20260506105512 57 213 6.0 16.0 0.00 0.00 0.00 84 1011.1
20260506105013 57 240 9.0 18.0 0.00 0.00 0.00 85 1011.3
20260506104531 57 250 8.0 18.0 0.00 0.00 0.00 84 1011.1
20260506104016 57 194 7.0 14.0 0.00 0.00 0.00 84 1011.1
20260506103512 57 234 6.0 14.0 0.00 0.00 0.00 84 1011.1
20260506103032 57 187 7.0 12.0 0.00 0.00 0.00 84 1011.1
20260506102515 57 194 5.0 14.0 0.00 0.00 0.00 83 1011.1
20260506102011 57 223 7.0 14.0 0.00 0.00 0.00 83 1010.9
20260506101532 57 196 4.0 12.0 0.00 0.00 0.00 83 1010.8
20260506101013 57 188 6.0 14.0 0.00 0.00 0.00 82 1010.8
20260506100514 57 234 6.0 14.0 0.00 0.00 0.00 82 1011.0
20260506100033 57 228 7.0 14.0 0.00 0.00 0.00 83 1011.1
20260506095513 56 205 7.0 14.0 0.00 0.00 0.00 83 1010.9
20260506095011 56 223 8.0 14.0 0.00 0.00 0.00 82 1010.7
20260506094535 56 217 7.0 12.0 0.00 0.00 0.00 82 1010.7
20260506094012 56 200 5.0 15.0 0.00 0.00 0.00 82 1010.7
20260506093513 56 225 7.0 15.0 0.00 0.00 0.00 82 1010.9
20260506093043 56 233 8.0 16.0 0.00 0.00 0.00 82 1010.8
20260506092514 56 230 7.0 16.0 0.00 0.00 0.00 81 1010.8
20260506092014 56 213 7.0 14.0 0.00 0.00 0.00 81 1010.7
20260506091530 57 227 6.0 13.0 0.00 0.00 0.00 81 1010.7
20260506091015 57 227 6.0 12.0 0.00 0.00 0.00 81 1010.7
20260506090513 57 208 7.0 14.0 0.00 0.00 0.00 81 1010.7
20260506090029 57 227 6.0 14.0 0.00 0.00 0.00 81 1010.8
20260506085511 57 225 6.0 14.0 0.00 0.00 0.00 80 1010.7
20260506085011 57 221 6.0 15.0 0.00 0.00 0.00 80 1010.9
20260506084529 57 210 7.0 15.0 0.00 0.00 0.00 79 1010.8
20260506084012 57 211 6.0 12.0 0.00 0.00 0.00 79 1010.8
20260506083514 58 222 5.0 13.0 0.00 0.00 0.00 79 1010.7
20260506083030 58 247 7.0 13.0 0.00 0.00 0.00 79 1010.6
20260506082515 58 217 6.0 12.0 0.00 0.00 0.00 78 1010.6
20260506082014 58 191 6.0 12.0 0.00 0.00 0.00 78 1010.5
20260506081528 58 241 5.0 14.0 0.00 0.00 0.00 78 1010.5
20260506081014 58 219 7.0 14.0 0.00 0.00 0.00 78 1010.5
20260506080515 59 219 7.0 13.0 0.00 0.00 0.00 77 1010.5
20260506073515 58 223 7.0 13.0 0.00 0.00 0.00 78 1010.6
20260506073032 58 242 3.0 11.0 0.00 0.00 0.00 78 1010.7
20260506072512 58 256 3.0 12.0 0.00 0.00 0.00 78 1010.7
20260506072013 59 238 6.0 14.0 0.00 0.00 0.00 77 1010.6
20260506071535 59 233 4.0 14.0 0.00 0.00 0.00 77 1010.4
20260506071013 59 234 7.0 14.0 0.00 0.00 0.00 76 1010.3
20260506070512 59 227 5.0 14.0 0.00 0.00 0.00 76 1010.2
20260506062511 59 220 10.0 20.0 0.00 0.00 0.00 76 1009.8
20260506062014 59 257 8.0 20.0 0.00 0.00 0.00 77 1009.8
20260506061535 59 251 7.0 20.0 0.00 0.00 0.00 77 1009.9
20260506061019 59 205 9.0 19.0 0.00 0.00 0.00 76 1009.9
20260506060514 59 234 7.0 16.0 0.00 0.00 0.00 76 1009.9
20260506051011 60 227 10.0 18.0 0.00 0.00 0.00 76 1010.1
20260506050513 60 211 7.0 15.0 0.00 0.00 0.00 76 1010.1
20260506045011 60 220 8.0 18.0 0.00 0.00 0.00 77 1010.3
20260506044540 60 360 7.0 16.0 0.00 0.00 0.00 77 1010.2
20260506044014 60 232 7.0 15.0 0.00 0.00 0.00 77 1010.2
20260506043517 61 216 7.0 15.0 0.00 0.00 0.00 77 1010.3
20260506043028 61 154 7.0 15.0 0.00 0.00 0.00 76 1010.1
20260506042514 61 360 6.0 16.0 0.00 0.00 0.00 77 1010.2
20260506042013 61 236 7.0 16.0 0.00 0.00 0.00 78 1010.3
20260506041535 61 251 6.0 16.0 0.00 0.00 0.00 78 1010.2
20260506041011 61 360 8.0 16.0 0.00 0.00 0.00 78 1010.3
20260506040511 61 360 7.0 14.0 0.00 0.00 0.00 79 1010.2
20260506040030 61 207 7.0 14.0 0.00 0.00 0.00 79 1010.3
20260506035512 61 225 5.0 11.0 0.00 0.00 0.00 80 1010.3
20260506035011 61 213 5.0 11.0 0.00 0.00 0.00 80 1010.2
20260506034530 61 200 5.0 12.0 0.00 0.00 0.00 79 1010.1
20260506034014 61 207 6.0 17.0 0.00 0.00 0.00 79 1010.0
20260506033514 61 193 7.0 17.0 0.00 0.00 0.00 79 1010.2
20260506033029 61 226 7.0 17.0 0.00 0.00 0.00 79 1010.1
20260506032512 61 175 9.0 16.0 0.00 0.00 0.00 80 1009.9
20260506032014 61 194 7.0 15.0 0.00 0.00 0.00 79 1010.1
20260506031534 61 198 6.0 12.0 0.00 0.00 0.00 80 1010.1
20260506031052 61 201 6.0 13.0 0.00 0.00 0.00 80 1010.1
20260506030511 61 205 5.0 13.0 0.00 0.00 0.00 79 1010.1
20260506030032 61 227 6.0 11.0 0.00 0.00 0.00 79 1010.1
20260506025516 61 207 5.0 10.0 0.00 0.00 0.00 79 1009.9
20260506025011 61 225 5.0 10.0 0.00 0.00 0.00 79 1009.9
20260506024535 61 231 4.0 10.0 0.00 0.00 0.00 78 1009.9
20260506024015 62 216 5.0 10.0 0.00 0.00 0.00 78 1010.0
20260506023513 62 206 5.0 10.0 0.00 0.00 0.00 78 1010.0
20260506023033 62 188 5.0 12.0 0.00 0.00 0.00 78 1010.1
20260506022513 62 225 5.0 12.0 0.00 0.00 0.00 78 1010.1
20260506022012 62 249 5.0 13.0 0.00 0.00 0.00 78 1010.2
20260506021528 62 242 5.0 13.0 0.00 0.00 0.00 78 1010.4
20260506021012 62 226 7.0 13.0 0.00 0.00 0.00 78 1010.4
20260506020511 62 237 6.0 12.0 0.00 0.00 0.00 78 1010.4
20260506020031 62 246 6.0 15.0 0.00 0.00 0.00 78 1010.2
20260506015515 62 269 6.0 15.0 0.00 0.00 0.00 78 1010.2
20260506015012 62 206 6.0 10.0 0.00 0.00 0.00 78 1010.3
20260506014532 62 252 6.0 10.0 0.00 0.00 0.00 78 1010.3
20260506014013 63 279 5.0 10.0 0.00 0.00 0.00 77 1010.4
20260506013513 63 270 4.0 10.0 0.00 0.00 0.00 75 1010.4